SCP
3 4 4 3 2 2 2 2 2 2 2 2 2 2 1 1 2 2 2 2 2 2 2 1 1 1 1 1 1 1 1 1 1 1 1 1 0 0 1 0 0 0 0
3 3 4 3 2 2 2 2 2 2 2 2 2 2 2 2 3 3 2 2 2 2 2 2 2 1 1 1 1 1 1 1 1 1 1 1 1 1 1 1 0 0 0
4 4 3 3 3 3 3 3 3 3 3 3 2 2 3 3 4 3 2 2 2 2 2 2 2 2 2 1 1 1 1 1 1 1 1 1 1 1 1 1 0 0 0
5 5 4 4 3 3 4 4 4 4 4 4 3 3 3 4 4 3 3 2 2 2 2 2 2 2 2 2 1 1 1 1 1 1 1 1 1 1 1 1 1 0 0
6 5 4 4 4 4 4 5 5 5 5 4 3 3 3 4 4 3 3 2 2 2 2 2 2 2 2 2 2 2 1 1 1 1 1 1 1 1 1 1 0 0 0
6 5 5 5 4 5 5 4 5 5 5 4 3 3 3 4 4 3 3 2 3 3 2 2 2 2 2 2 2 2 1 1 1 1 1 1 1 1 1 1 1 0 0
6 5 5 5 5 5 4 4 4 4 4 3 3 3 3 3 3 3 3 3 3 3 3 3 2 2 1 1 1 1 1 1 1 1 1 1 1 1 1 1 1 1 0
6 6 5 5 5 5 5 4 4 4 4 3 3 3 2 2 2 2 3 3 3 3 3 3 2 1 1 1 1 1 1 1 1 1 1 1 1 1 1 1 1 1 0
6 6 6 5 5 5 5 5 5 4 4 3 3 3 2 2 2 2 2 2 2 3 3 2 1 1 1 1 1 1 1 1 1 1 1 1 1 1 1 1 1 0 0
5 5 5 6 6 6 5 5 5 5 4 4 3 3 3 2 2 1 1 1 2 2 2 1 1 1 1 1 1 1 1 1 1 1 0 0 0 1 1 1 0 0 0
4 4 5 5 6 6 5 5 5 5 4 4 4 3 3 2 1 1 1 1 1 1 0 0 0 0 0 0 0 0 0 0 0 0 0 0 0 0 0 0 0 0 0
4 4 4 5 5 5 5 5 5 5 4 4 4 3 3 2 1 1 1 1 0 0 0 0 0 0 0 0 0 0 0 0 0 0 0 0 0 0 0 0 0 0 0
4 4 4 4 4 5 5 6 6 6 5 4 3 3 3 2 2 1 1 1 0 0 0 0 0 0 0 0 0 0 0 0 0 0 0 0 0 0 0 0 0 0 0
3 3 3 5 7 6 4 6 7 6 5 4 3 2 2 2 2 2 1 1 0 0 0 0 0 0 0 0 0 0 0 0 0 0 0 0 0 0 0 0 0 0 0
4 3 3 6 9 6 3 4 5 5 4 3 2 2 2 2 2 2 2 1 1 0 0 0 0 0 0 0 0 0 0 0 0 0 0 0 0 0 0 0 0 0 0
3 3 2 4 5 4 2 3 3 4 3 2 1 1 1 1 1 2 2 2 1 0 0 0 0 0 0 0 0 0 0 0 0 0 0 0 0 0 0 0 0 0 0
2 2 1 1 1 1 1 1 2 2 2 1 1 1 1 1 1 1 2 1 1 0 0 0 0 0 0 0 0 0 0 0 0 0 0 0 0 0 0 0 0 0 0
1 1 1 0 0 0 1 1 1 1 1 1 0 0 0 1 1 1 1 1 0 0 0 0 0 0 0 0 0 0 0 0 0 0 0 0 0 0 0 0 0 0 0
0 0 0 0 0 0 0 0 0 0 0 0 0 0 0 0 1 1 1 0 0 0 0 0 0 0 0 0 0 0 0 0 0 0 0 0 0 0 0 0 0 0 0
0 0 0 0 0 0 0 0 0 0 0 0 0 0 0 0 0 0 0 0 0 0 0 0 0 0 0 0 0 0 0 0 0 0 0 0 0 0 0 0 0 0 0
0 0 0 0 0 0 0 0 0 0 0 0 0 0 0 0 0 0 0 0 0 0 0 0 0 0 0 0 0 0 0 0 0 0 0 0 0 0 0 0 0 0 0
0 0 0 0 0 0 0 0 0 0 0 0 0 0 0 0 0 0 0 0 0 0 0 0 0 0 0 0 0 0 0 0 0 0 0 0 0 0 0 0 0 0 0
0 0 0 0 0 0 0 0 0 0 0 0 0 0 0 0 0 0 0 0 0 0 0 0 0 0 0 0 0 0 0 0 0 0 0 0 0 0 0 0 0 0 0
0 0 0 0 0 0 0 0 0 0 0 0 0 0 0 0 0 0 0 0 0 0 0 0 0 0 0 0 0 0 0 0 0 0 0 0 0 0 0 0 0 0 0
0 0 0 0 0 0 0 0 0 0 0 0 0 0 0 0 0 0 0 0 0 0 0 0 0 0 0 0 0 0 0 0 0 0 0 0 0 0 0 0 0 0 0
0 0 0 0 0 0 0 0 0 0 0 0 0 0 0 0 0 0 0 0 0 0 0 0 0 0 0 0 0 0 0 0 0 0 0 0 0 0 0 0 0 0 0
Wind_Speed
2 2 3 3 5 4 4 4 5 5 4 3 3 4 4 2 4 4 5 10 11 10 10 10 9 8 8 8 7 7 7 8 8 8 8 8 8 8 8 8 8 8 8
2 2 2 2 3 3 4 4 4 3 2 1 1 1 1 3 4 5 6 7 9 10 9 9 9 9 9 9 8 9 9 9 9 9 8 8 8 8 8 8 8 8 9
1 2 2 3 3 3 2 2 3 2 2 2 0 1 1 2 3 5 6 5 6 8 9 9 10 10 10 10 10 11 11 10 10 10 9 9 8 8 9 9 9 9 10
2 2 3 3 3 2 2 2 2 2 2 2 1 1 1 2 3 3 4 4 4 5 7 10 10 10 11 11 11 12 12 11 11 11 10 10 10 10 10 10 10 10 10
2 2 3 2 2 2 2 4 3 3 3 3 2 1 2 2 2 3 4 4 4 5 5 8 10 11 11 12 12 13 13 13 12 12 12 12 12 12 12 11 11 11 11
1 2 2 3 3 2 3 3 3 3 3 3 3 2 2 2 2 3 3 4 4 5 6 6 5 7 12 12 12 13 13 13 13 12 12 12 12 12 11 11 11 11 11
1 2 3 3 3 3 4 4 3 4 4 4 3 2 2 3 3 2 2 3 4 4 5 5 5 5 6 11 12 12 13 13 12 12 12 12 12 11 11 11 11 10 10
1 2 2 2 3 3 4 3 4 3 3 4 3 3 3 2 1 2 3 3 3 4 4 5 6 6 5 4 9 13 12 12 12 12 12 11 11 10 10 10 10 10 9
1 1 2 2 2 3 3 3 4 4 4 5 4 4 4 4 3 1 2 3 3 4 4 4 6 6 7 6 6 9 12 11 11 11 11 10 10 9 9 9 9 8 8
1 1 1 2 2 1 2 3 3 3 4 4 4 3 2 4 5 4 1 2 4 4 4 4 5 6 7 6 8 11 12 10 11 11 10 10 10 9 9 9 8 8 7
1 1 1 1 1 1 2 2 2 3 3 4 4 3 3 2 3 4 4 3 3 3 3 4 4 5 6 6 6 10 12 10 10 10 10 9 9 8 8 8 7 7 7
1 2 2 2 1 1 2 2 2 3 4 4 4 4 4 4 5 4 5 6 4 3 3 3 3 4 4 5 9 13 11 10 9 9 9 9 8 8 7 7 7 6 6
2 3 3 2 2 2 2 1 1 1 3 4 4 4 4 4 4 4 6 6 5 3 3 2 2 3 4 5 7 13 11 10 9 8 8 7 7 7 7 6 6 5 5
3 3 3 3 3 3 3 2 1 1 0 1 3 3 3 3 4 5 6 8 7 4 2 2 1 2 4 4 7 9 7 10 9 8 7 6 6 5 5 5 5 4 4
3 4 4 4 4 4 3 3 2 3 2 2 1 2 2 3 4 4 5 7 8 7 4 3 2 3 4 4 7 5 6 8 8 7 6 6 5 4 4 4 4 3 3
5 5 5 5 5 5 5 4 4 4 5 5 4 6 5 4 5 5 5 4 5 7 6 4 3 4 5 7 8 5 6 10 8 7 7 6 5 5 5 4 4 3 2
5 5 5 6 6 5 5 5 5 6 7 6 6 7 7 6 6 5 5 5 6 6 8 5 4 5 5 6 6 4 5 6 5 8 8 7 6 6 5 5 5 4 3
6 6 6 7 7 6 6 6 7 7 7 7 7 7 7 7 7 6 5 6 5 5 9 10 6 5 5 5 5 4 5 7 6 9 10 9 8 7 7 6 6 5 4
7 8 8 8 8 7 6 7 7 8 7 7 7 8 8 7 7 6 6 6 6 7 7 9 7 5 4 4 4 4 4 3 6 8 10 10 9 9 9 8 8 7 6
8 8 8 8 8 8 8 8 8 8 8 9 9 8 7 6 6 7 7 7 8 8 8 7 7 5 4 3 3 2 2 3 3 6 7 8 9 10 10 9 9 9 8
8 8 8 9 8 8 8 8 8 9 9 10 10 10 11 13 12 8 7 7 7 6 6 6 6 5 4 3 2 2 2 2 1 2 2 4 5 5 6 9 10 10 10
8 9 9 9 10 9 12 13 9 9 9 9 9 9 11 13 17 18 18 15 10 7 6 5 5 5 4 3 1 1 1 1 1 0 1 2 4 4 5 5 10 12 12
8 9 9 9 10 12 15 14 12 8 9 8 8 7 9 10 10 9 12 13 13 13 10 6 6 5 4 2 2 2 2 1 1 1 0 1 1 2 3 5 13 13 13
7 7 8 8 9 12 14 13 11 9 9 9 9 9 9 9 9 7 9 9 10 9 8 7 6 6 5 4 3 2 1 1 1 1 1 1 1 1 1 3 11 13 13
6 7 6 7 8 10 13 12 9 7 8 10 10 10 9 9 11 9 8 8 8 6 10 11 9 7 7 6 4 3 2 1 0 0 0 1 1 1 1 2 6 13 13
6 6 6 7 8 8 12 12 7 5 6 6 7 8 13 11 12 10 6 6 6 5 5 4 4 2 2 1 1 1 2 2 2 1 1 1 2 2 2 2 1 4 6
Wind_Direction
217 207 175 175 197 194 201 214 210 209 222 234 230 194 187 166 122 118 131 141 143 143 146 149 150 150 144 135 129 127 125 121 115 109 102 97 93 89 86 83 82 80 77
201 215 194 194 218 203 193 210 213 198 208 248 281 325 108 109 110 118 121 129 130 133 139 143 145 142 137 132 132 130 124 119 115 111 107 103 101 98 93 87 83 80 78
213 232 227 199 226 222 209 212 207 199 203 208 221 356 39 76 96 110 119 124 126 128 130 130 132 134 135 135 133 129 124 119 115 111 109 106 103 100 98 92 87 83 82
229 243 246 228 221 226 204 206 211 204 197 170 164 129 82 73 74 97 111 121 125 125 122 125 126 128 129 133 134 131 127 122 117 114 110 105 100 96 94 92 88 84 82
231 241 253 259 236 222 216 219 203 190 177 164 148 127 95 97 105 116 110 111 115 119 120 124 125 126 128 129 128 127 123 118 114 109 104 100 97 93 91 88 86 83 80
238 257 254 254 254 232 219 218 205 185 170 156 151 111 81 82 82 95 110 114 119 123 125 124 123 119 121 123 124 126 123 119 113 108 104 101 98 95 91 88 86 83 80
252 239 261 246 237 241 233 211 195 188 178 152 134 122 77 57 65 76 85 96 104 107 112 119 119 115 116 117 120 120 119 116 112 109 107 103 100 97 94 90 88 84 81
274 253 246 252 234 233 228 207 202 195 188 177 164 153 150 132 61 53 74 93 99 101 104 119 118 115 111 109 114 115 112 113 113 112 109 106 103 100 97 94 91 87 83
266 288 281 272 264 248 229 210 203 201 201 191 175 164 165 175 141 83 62 80 100 103 100 98 104 109 111 107 106 106 109 112 115 113 112 109 107 104 100 97 94 90 83
307 290 286 278 267 253 244 229 212 210 200 196 192 190 176 145 149 141 103 67 78 86 89 96 97 97 101 103 107 110 107 110 113 114 113 111 108 105 101 95 90 84 79
331 330 336 316 298 271 261 246 231 220 212 210 196 180 177 162 143 142 152 143 92 69 80 86 98 101 103 108 110 112 108 106 109 111 111 112 110 105 100 94 89 84 77
0 1 356 351 333 322 299 272 242 227 219 217 209 195 177 166 167 153 149 151 133 99 78 80 94 102 107 112 119 119 115 110 108 111 113 113 110 107 102 96 91 85 80
23 12 8 2 356 343 329 319 267 242 229 220 212 210 195 177 159 148 143 141 125 108 89 70 88 107 116 112 123 126 121 118 114 112 112 114 113 109 103 96 90 85 80
27 14 12 14 9 5 3 14 22 357 302 229 217 202 180 165 156 149 148 143 131 116 111 125 88 105 114 122 132 130 129 132 127 122 121 121 119 116 110 104 100 94 87
28 25 28 32 27 23 22 30 46 43 46 49 86 118 120 124 132 136 139 147 142 143 143 154 142 134 134 133 144 139 136 146 146 143 142 139 134 134 136 131 123 113 104
33 36 40 43 44 40 40 48 56 57 66 67 75 79 83 96 108 113 118 117 120 130 130 140 148 154 149 148 155 152 150 159 165 166 164 162 163 165 167 164 160 157 151
44 49 46 48 48 48 52 62 68 68 70 69 75 87 89 92 102 107 109 108 110 115 122 127 139 149 143 141 149 159 157 167 175 183 183 183 186 188 188 187 187 195 206
50 56 59 57 54 54 56 64 71 69 75 79 80 86 91 95 95 99 104 111 114 119 131 135 140 140 142 150 155 171 172 178 179 191 193 194 196 199 201 201 204 211 221
55 56 61 63 58 54 59 66 72 74 73 76 79 84 89 96 101 106 110 114 118 119 120 128 135 138 143 153 161 186 181 177 187 183 194 202 205 206 208 209 212 217 224
61 58 58 57 57 54 57 67 75 76 75 73 74 75 78 85 97 107 108 111 116 118 121 125 130 136 139 155 163 182 183 199 193 178 187 191 203 208 212 214 218 222 227
63 61 62 57 54 52 49 59 73 79 78 79 78 78 77 79 78 84 93 100 110 116 121 127 132 135 142 155 176 190 173 181 177 156 179 192 185 198 211 221 223 225 228
63 63 62 59 56 51 42 50 65 74 76 80 85 88 85 81 81 80 80 78 82 102 115 122 125 129 133 138 147 153 133 125 166 196 178 218 176 194 204 202 208 215 224
70 68 65 63 61 46 44 47 55 68 70 68 68 71 78 72 71 83 81 74 67 67 77 97 104 112 111 105 96 90 86 93 157 206 122 271 209 205 207 194 196 209 219
74 76 72 67 64 48 42 45 54 66 66 64 62 64 67 56 48 71 84 77 68 59 65 71 73 73 71 51 40 62 96 126 251 256 168 256 251 241 159 166 199 209 219
78 79 77 72 65 47 38 43 55 72 70 65 61 56 59 57 42 71 88 89 86 79 74 78 82 85 81 65 43 19 357 37 13 267 345 316 308 298 243 205 208 214 224
85 85 80 73 69 58 42 40 46 88 91 87 78 67 55 52 48 56 73 81 83 83 93 94 85 85 102 90 25 358 1 22 29 13 2 354 340 351 323 290 209 205 229